Flag for Switzerland Weather past 2 weeks in Aarau, Aargau, Switzerland

Now
62 °F

Cool.


Feels Like: 62 °F
Forecast: 56 / 73 °F
Wind: 1 mph from South

Location: Wynau

Current Time: Jul 26, 2014 at 12:19:31 AM

Latest Report: Jul 25, 2014 at 11:00 PM


Visibility: N/A

Pressure: 29.92 "Hg

Humidity: 79%

Dew point: 55 °F

Location of AarauLocation

Historic Weather in Aarau — Graph

°F

Aarau temperature yesterday

Maximum temperature yesterday: 80 °F (at 3:00 PM)
Minimum temperature yesterday: 54 °F (at 6:00 AM)
Average temperature yesterday: 66 °F

Past Weeks' High & Low Weather Summary

 TemperatureHumidityPressure
High88 °F (Jul 18, 5:00 PM)100% (Jul 23, 1:00 AM)30.22 "Hg (Jul 23, 1:00 AM)
Low53 °F (Jul 16, 6:00 AM)27% (Jul 18, 7:00 PM)29.81 "Hg (Jul 25, 5:00 PM)
Average66 °F79%29.98 "Hg
* Reported Jul 10 11:00 PM — Jul 25 11:00 PM, Aarau, Weather by CustomWeather, © 2014

Note: Actual official high and low records may vary slightly from our data, if they occured in-between our weather recording intervals... More about our weather records

Advertising

Aarau weather history for previous 24 hours

 ConditionsComfort  
Time TempWeatherWind HumidityBarometerVisibility
11:00 PM
Jul 25
62 °FCool.1 mph79%29.92 "HgN/A
10:00 PM64 °FMild.1 mph80%29.90 "HgN/A
9:00 PM66 °FMild.2 mph69%29.89 "HgN/A
8:00 PM70 °FMild.1 mph61%29.86 "HgN/A
7:00 PM74 °FMild.6 mph51%29.84 "HgN/A
6:00 PM76 °FMild.1 mph47%29.82 "HgN/A
5:00 PM78 °FPleasantly warm.3 mph34%29.81 "HgN/A
4:00 PM79 °FPleasantly warm.3 mph36%29.84 "HgN/A
3:00 PM80 °FPleasantly warm.3 mph37%29.84 "HgN/A
2:00 PM78 °FPleasantly warm.2 mph35%29.86 "HgN/A
1:00 PM77 °FMild.5 mph60%29.88 "HgN/A
12:00 PM74 °FMild.5 mph61%29.91 "HgN/A
11:00 AM71 °FMild.6 mph61%29.92 "HgN/A
10:00 AM68 °FMild.6 mph73%29.93 "HgN/A
9:00 AM64 °FMild.6 mph80%29.96 "HgN/A
8:00 AM59 °FCool.1 mph92%29.97 "HgN/A
7:00 AM55 °FCool.1 mph100%29.98 "HgN/A
6:00 AM54 °FCool.1 mph100%29.98 "HgN/A
5:00 AM55 °FCool.1 mph99%29.96 "HgN/A
4:00 AM56 °FCool.2 mph99%29.96 "HgN/A
3:00 AM56 °FCool.2 mph99%29.96 "HgN/A
2:00 AM57 °FCool.1 mph98%29.96 "HgN/A
1:00 AM58 °FCool.2 mph99%29.96 "HgN/A
12:00 AM60 °FCool.1 mph97%29.96 "HgN/A
Weather by CustomWeather, © 2014

See weather overviewHow to use our weather pages